Tracking 30509 objects as of 21-May-2025
HD Live streaming from Space Station
objects crossing your sky now

ATLAS 75E DEB

Track ATLAS 75E DEB now!
10-day predictions


NORAD ID: 25842
Int'l Code: 1983-072C
Perigee: 1,751.7 km
Apogee: 19,492.0 km
Inclination: 65.3 °
Period: 367.4 minutes
Semi major axis: 16992 km
RCS: 0.0797 m2 (small)
Launch date: July 14, 1983
Source: United States (US)
Launch site: AIR FORCE WESTERN TEST RANGE (AFWTR)

Note: This is SATELLITE DEBRIS
Your satellite tracking list
Your tracking list is empty




NASA's NSSDC Master Catalog

Two Line Element Set (TLE):
1 25842U 83072C   25137.53886267 -.00000019  00000-0  00000-0 0  9995
2 25842  65.3325 269.0747 5219938 111.9370 331.3883  3.91926306 59991
Source of the keplerian elements: AFSPC